Nashua, NH

7:53 AM EST on February 24, 2017 (GMT -0500)
Boire

Weather History for KASH - March, 2011

Change the Weather History Date:

Monday, March 21, 2011

  Actual Average Record
Temperature  
Mean Temperature 34 °F -  
Max Temperature 37 °F 45 °F 81 °F (2012)
Min Temperature 32 °F 25 °F 2 °F (1956)
Degree Days  
Heating Degree Days 30    
Moisture  
Dew Point 30 °F    
Average Humidity 88    
Maximum Humidity 100    
Minimum Humidity 60    
Precipitation  
Precipitation 0.09 in - - ()
Sea Level Pressure  
Sea Level Pressure 30.11 in    
Wind  
Wind Speed 3 mph (SE)    
Max Wind Speed 9 mph    
Max Gust Speed 16 mph    
Visibility 4 miles    
Events Rain , Snow    
Averages and records for this station are not official NWS values.
T = Trace of Precipitation, MM = Missing Value Source: NWS Daily Summary

Daily Weather History Graph

Daily Weather History Graph

Search for Another Location

Airport or City:

Trip Planner

Search our weather history database for the weather conditions in past years. The results will help you decide how hot, cold, wet, or windy it might be!

Date:

Astronomy

Mar. 21, 2011 Rise Set
Actual Time 6:48 AM EDT 6:59 PM EDT
Civil Twilight 6:19 AM EDT 7:27 PM EDT
Nautical Twilight 5:46 AM EDT 8:00 PM EDT
Astronomical Twilight 5:13 AM EDT 8:34 PM EDT
Moon 9:56 PM EDT (3/21) 7:23 AM EDT (3/21)
Length of Visible Light 13h 07m
Length of Day
12h 11m
Waning Gibbous, 95% of the Moon is Illuminated
Mar 21
Waning Gibbous
Mar 26
Last Quarter
Apr 3
New
Apr 11
First Quarter
Apr 17
Full

Hourly Weather History & Observations

Time (EDT) Temp. Windchill Dew Point Humidity Pressure Visibility Wind Dir Wind Speed Gust Speed Precip Events Conditions
12:51 AM 32.9 °F - 22.1 °F 65% 30.50 in 10.0 mi Calm Calm - N/A   Clear
1:51 AM 32.9 °F - 23.0 °F 67% 30.49 in 10.0 mi Calm Calm - N/A   Clear
2:51 AM 34.0 °F - 23.0 °F 64% 30.48 in 10.0 mi Calm Calm - N/A   Clear
3:51 AM 34.0 °F - 23.0 °F 64% 30.45 in 10.0 mi Calm Calm - N/A   Clear
4:51 AM 34.0 °F - 23.0 °F 64% 30.43 in 10.0 mi Calm Calm - N/A   Clear
5:51 AM 34.0 °F 31.0 °F 24.1 °F 67% 30.41 in 10.0 mi Variable 3.5 mph - N/A   Clear
6:51 AM 34.0 °F - 24.1 °F 67% 30.38 in 10.0 mi Calm Calm - N/A   Clear
7:51 AM 34.9 °F 29.9 °F 24.1 °F 65% 30.33 in 10.0 mi Variable 5.8 mph - N/A   Clear
8:51 AM 36.0 °F 30.3 °F 25.2 °F 65% 30.32 in 10.0 mi SSE 6.9 mph - N/A   Clear
9:51 AM 36.9 °F 30.7 °F 25.2 °F 63% 30.28 in 10.0 mi SE 8.1 mph - N/A   Clear
10:51 AM 37.9 °F 32.7 °F 25.2 °F 60% 30.27 in 10.0 mi South 6.9 mph - N/A   Clear
11:19 AM 35.6 °F 29.2 °F 26.6 °F 70% 30.25 in 1.8 mi SSW 8.1 mph - 0.00 in Rain , Snow Light Rain
11:24 AM 35.6 °F 29.2 °F 28.4 °F 75% 30.26 in 1.0 mi SSW 8.1 mph - 0.00 in Snow Light Snow
11:29 AM 33.8 °F 29.6 °F 28.4 °F 81% 30.26 in 0.5 mi Variable 4.6 mph - 0.00 in Snow Snow
11:51 AM 32.9 °F 29.8 °F 31.1 °F 93% 30.28 in 0.8 mi Variable 3.5 mph - 0.00 in Snow Light Snow
12:22 PM 33.8 °F - 30.2 °F 87% 30.23 in 0.8 mi Calm Calm - 0.00 in Snow Light Snow
12:51 PM 32.9 °F - 32.0 °F 96% 30.23 in 0.8 mi Calm Calm - 0.00 in Snow Light Snow
12:58 PM 33.8 °F - 32.0 °F 93% 30.20 in 0.8 mi Calm Calm - 0.00 in Snow Light Snow
1:51 PM 32.9 °F 26.7 °F 32.0 °F 96% 30.17 in 0.8 mi ESE 6.9 mph - 0.00 in Snow Light Snow
1:53 PM 33.8 °F 27.0 °F 33.8 °F 100% 30.15 in 1.2 mi ESE 8.1 mph - 0.00 in Snow Light Snow
2:00 PM 33.8 °F 27.0 °F 33.8 °F 100% 30.14 in 0.8 mi SE 8.1 mph - 0.00 in Snow Light Snow
2:51 PM 32.9 °F 26.7 °F 32.0 °F 96% 30.12 in 1.0 mi SE 6.9 mph - 0.02 in Snow Light Snow
3:31 PM 33.8 °F 26.4 °F 32.0 °F 93% 30.07 in 2.5 mi SE 9.2 mph - 0.02 in Snow Light Snow
3:51 PM 32.9 °F 25.3 °F 32.0 °F 96% 30.08 in 1.8 mi ESE 9.2 mph 16.1 mph 0.03 in Snow Light Snow
4:06 PM 33.8 °F 26.4 °F 32.0 °F 93% 30.05 in 2.0 mi ESE 9.2 mph 16.1 mph 0.01 in Snow Light Snow
4:19 PM 33.8 °F 27.0 °F 32.0 °F 93% 30.04 in 0.8 mi SE 8.1 mph - 0.01 in Snow Light Snow
5:58 PM 33.8 °F 28.6 °F 32.0 °F 93% 29.98 in 1.5 mi SE 5.8 mph - N/A   Overcast
6:20 PM 33.8 °F - 32.0 °F 93% 29.98 in 1.2 mi Calm Calm - N/A   Overcast
6:27 PM 33.8 °F - 32.0 °F 93% 29.98 in 1.0 mi Calm Calm - 0.01 in   Overcast
6:51 PM 32.9 °F 27.5 °F 32.0 °F 96% 29.96 in 0.8 mi SE 5.8 mph - 0.02 in   Overcast
7:15 PM 33.8 °F 27.7 °F 33.8 °F 100% 29.89 in 1.2 mi SE 6.9 mph - 0.01 in   Mostly Cloudy
7:21 PM 33.8 °F 30.8 °F 33.8 °F 100% 29.91 in 2.0 mi Variable 3.5 mph - 0.01 in   Mostly Cloudy
7:39 PM 33.8 °F 30.8 °F 33.8 °F 100% 29.94 in 3.0 mi WNW 3.5 mph - 0.02 in   Mostly Cloudy
7:51 PM 32.9 °F - 32.0 °F 96% 29.94 in 2.0 mi Calm Calm - 0.02 in Rain Light Rain
8:24 PM 33.8 °F - 32.0 °F 93% 29.91 in 3.0 mi Calm Calm - 0.00 in Snow Light Snow
8:34 PM 33.8 °F - 32.0 °F 93% 29.91 in 2.5 mi Calm Calm - 0.00 in Snow Light Snow
8:51 PM 32.9 °F - 32.0 °F 96% 29.92 in 1.5 mi Calm Calm - 0.00 in   Overcast
8:59 PM 33.8 °F - 33.8 °F 100% 29.91 in 2.0 mi Calm Calm - 0.00 in   Overcast
9:15 PM 33.8 °F - 33.8 °F 100% 29.90 in 1.8 mi Calm Calm - 0.00 in   Mostly Cloudy
9:22 PM 33.8 °F - 33.8 °F 100% 29.90 in 2.0 mi Calm Calm - 0.00 in   Mostly Cloudy
9:40 PM 33.8 °F - 33.8 °F 100% 29.88 in 2.0 mi Calm Calm - 0.00 in   Scattered Clouds
9:51 PM 32.9 °F - 32.9 °F 100% 29.89 in 2.0 mi Calm Calm - 0.00 in   Scattered Clouds
10:12 PM 33.8 °F - 33.8 °F 100% 29.87 in 3.0 mi Calm Calm - 0.00 in   Mostly Cloudy
10:51 PM 32.9 °F - 32.9 °F 100% 29.87 in 3.0 mi Calm Calm - 0.00 in   Mostly Cloudy
11:12 PM 33.8 °F - 33.8 °F 100% 29.85 in 2.5 mi Calm Calm - N/A   Mostly Cloudy
11:27 PM 33.8 °F - 33.8 °F 100% 29.84 in 3.0 mi Calm Calm - N/A   Scattered Clouds
11:51 PM 32.9 °F - 32.9 °F 100% 29.86 in 3.0 mi Calm Calm - N/A   Scattered Clouds